Race Analysis

 :: S47

Ver o tópico anterior Ver o tópico seguinte Ir em baixo

Race Analysis

Mensagem por Paulo Coutinho em Qua Maio 20, 2015 9:34 am

Fiorano (Italy), Season 47


Lap Lap time Pos Tyres Weather Temp (°) Hum (%) Events
0 - 30 Soft Partially Cloudy 18 10 -
1 1:22.472 32 Soft Partially Cloudy 18 10 -
2 1:05.448 32 Soft Partially Cloudy 18 10 -
3 1:05.503 32 Soft Partially Cloudy 18 10 -
4 1:05.374 32 Soft Partially Cloudy 18 10 -
5 1:05.581 32 Soft Partially Cloudy 18 10 -
6 1:05.549 32 Soft Partially Cloudy 18 9 -
7 1:05.255 32 Soft Sunny 19 9 -
8 1:05.231 32 Soft Sunny 20 9 -
9 1:05.265 32 Soft Sunny 21 9 -
10 1:05.063 32 Soft Sunny 21 9 -
11 1:05.090 32 Soft Sunny 22 9 -
12 1:04.966 32 Soft Sunny 22 9 -
13 1:04.997 32 Soft Sunny 23 9 -
14 1:05.512 31 Soft Sunny 23 9 -
15 1:04.962 31 Soft Sunny 23 9 -
16 1:04.824 31 Soft Sunny 23 9 -
17 1:05.041 31 Soft Sunny 24 9 -
18 1:05.055 31 Soft Sunny 24 9 -
19 1:04.795 31 Soft Sunny 24 9 -
20 1:04.997 31 Soft Sunny 24 9 -
21 1:04.658 31 Soft Partially Cloudy 24 9 -
22 1:04.727 31 Soft Partially Cloudy 24 9 -
23 1:04.782 31 Soft Partially Cloudy 24 9 -
24 1:04.621 31 Soft Partially Cloudy 24 9 -
25 1:04.687 31 Soft Partially Cloudy 24 9 -
26 1:04.565 31 Soft Partially Cloudy 24 9 -
27 1:04.595 30 Soft Partially Cloudy 24 9 -
28 1:04.496 28 Soft Partially Cloudy 24 9 -
29 1:04.637 25 Soft Partially Cloudy 24 9 -
30 1:04.700 23 Soft Partially Cloudy 24 9 -
31 1:04.752 23 Soft Partially Cloudy 24 10 -
32 1:04.395 23 Soft Partially Cloudy 24 10 -
33 1:04.482 23 Soft Partially Cloudy 24 10 -
34 1:04.512 23 Soft Partially Cloudy 24 10 -
35 1:04.668 23 Soft Partially Cloudy 24 10 -
36 1:04.509 22 Soft Partially Cloudy 24 10 -
37 1:04.527 22 Soft Partially Cloudy 24 10 -
38 1:04.271 22 Soft Partially Cloudy 23 10 -
39 1:04.409 21 Soft Partially Cloudy 22 10 -
40 1:12.740 24 Soft Partially Cloudy 21 10 Pit
41 1:38.524 31 Soft Partially Cloudy 20 10 -
42 1:05.382 31 Soft Partially Cloudy 20 10 -
43 1:05.391 31 Soft Partially Cloudy 20 10 -
44 1:05.381 31 Soft Partially Cloudy 20 10 -
45 1:05.540 31 Soft Partially Cloudy 20 10 -
46 1:05.476 31 Soft Partially Cloudy 20 10 -
47 1:05.214 31 Soft Partially Cloudy 20 10 -
48 1:05.271 31 Soft Partially Cloudy 20 10 -
49 1:05.199 31 Soft Partially Cloudy 20 10 -
50 1:05.435 31 Soft Partially Cloudy 20 10 -
51 1:05.422 31 Soft Partially Cloudy 20 10 -
52 1:05.265 31 Soft Partially Cloudy 20 10 -
53 1:05.200 31 Soft Partially Cloudy 20 10 -
54 1:05.234 31 Soft Partially Cloudy 20 10 -
55 1:05.297 30 Soft Partially Cloudy 20 10 -
56 1:04.897 30 Soft Partially Cloudy 21 10 -
57 1:04.883 30 Soft Partially Cloudy 21 10 -
58 1:05.080 29 Soft Partially Cloudy 21 10 -
59 1:04.950 28 Soft Partially Cloudy 21 10 -
60 1:04.674 28 Soft Partially Cloudy 21 10 -
61 1:04.937 27 Soft Partially Cloudy 21 11 -
62 1:04.910 28 Soft Partially Cloudy 21 11 -
63 1:04.740 28 Soft Partially Cloudy 21 11 -
64 1:04.656 28 Soft Partially Cloudy 21 11 -
65 1:04.529 28 Soft Partially Cloudy 21 11 -
66 1:04.743 28 Soft Partially Cloudy 21 11 -
67 1:04.530 28 Soft Partially Cloudy 21 11 -
68 1:04.645 28 Soft Partially Cloudy 21 11 -
69 1:04.667 28 Soft Partially Cloudy 21 11 -
70 1:04.601 28 Soft Partially Cloudy 20 11 -
71 1:04.546 27 Soft Partially Cloudy 20 11 -
72 1:04.503 27 Soft Partially Cloudy 19 11 -
73 1:04.514 27 Soft Partially Cloudy 19 11 -
74 1:04.505 27 Soft Partially Cloudy 19 11 -
75 1:04.311 27 Soft Partially Cloudy 19 11 -
76 1:04.430 27 Soft Partially Cloudy 19 11 -
77 1:04.417 27 Soft Partially Cloudy 19 11 -
78 1:04.470 26 Soft Partially Cloudy 18 11 -
79 1:04.320 26 Soft Partially Cloudy 17 11 -


Risks used:
Overtake Defend Clear & dry Clear & wet Malfunct
0 0 0 0 0

Setup used:
Front wing Rear wing Engine Brakes Gear Suspension
423 453 765 198 303 999

Cha Eng FWing RWing Underb Sidep Cool Gear Bra Susp Elec
Car parts level: 6 3 6 6 7 7 7 5 6 6 6
Car parts wear (at the start) (%): 8 51 39 26 25 4 21 64 12 50 70
Car parts wear (at the finish) (%): 21 73 52 40 35 12 30 81 35 65 79

Start fuel (liters): 96

Pit Pitstop reason Tyres condition (%) Fuel left (%) Refilled to (liters) Pit time (sec)
Stop 1 (Lap 40): No more fuel was left 18 1 102 liters 24.233

Tyres condition after finish (%): 23

Fuel left in the car after finish (liters): 9


Nova grande prova do Sutil.
Quanto à tool da Famel no que toca a consumo parece que só deu valores certos para mim. Até deu para fazer mais uma volta no primeiro stint. Parece que a minha Famel não é assim tão gulosa. Very Happy
Vi muita malta parar nas 2 voltas finais sem gota.
Vamos lá pessoal quero ver essas rodas no ar. Laughing Laughing

_________________
Paulo Coutinho
avatar
Paulo Coutinho

Mensagens : 1715
Data de inscrição : 31/03/2015
Idade : 44

Ver perfil do usuário

Voltar ao Topo Ir em baixo

Re: Race Analysis

Mensagem por José Serrano em Qua Maio 20, 2015 3:21 pm

Fiorano (Italy), Época 47


Volta Tempo volta Pos Pneus Tempo Temp (°) Hum (%) Ocorrências
0 - 26 Super Macios Parcial/nublado 18 10 -
1 1:19.520 24 Super Macios Parcial/nublado 18 10 -
2 1:07.308 25 Super Macios Parcial/nublado 18 10 -
3 1:06.985 25 Super Macios Parcial/nublado 18 10 -
4 1:05.943 25 Super Macios Parcial/nublado 18 10 -
5 1:05.925 24 Super Macios Parcial/nublado 18 10 -
6 1:07.097 25 Super Macios Parcial/nublado 18 9 -
7 1:06.586 25 Super Macios Sol 19 9 -
8 1:06.194 24 Super Macios Sol 20 9 -
9 1:06.742 23 Super Macios Sol 21 9 -
10 1:06.190 23 Super Macios Sol 21 9 -
11 1:06.485 24 Super Macios Sol 22 9 -
12 1:05.887 22 Super Macios Sol 22 9 -
13 1:06.099 22 Super Macios Sol 23 9 -
14 1:05.079 21 Super Macios Sol 23 9 -
15 1:04.119 21 Super Macios Sol 23 9 -
16 1:04.963 21 Super Macios Sol 23 9 -
17 1:04.151 21 Super Macios Sol 24 9 -
18 1:13.187 22 Super Macios Sol 24 9 Pit
19 1:37.352 28 Super Macios Sol 24 9 -
20 1:08.953 28 Super Macios Sol 24 9 Erro do Piloto
21 1:05.763 27 Super Macios Parcial/nublado 24 9 -
22 1:04.720 27 Super Macios Parcial/nublado 24 9 -
23 1:04.669 26 Super Macios Parcial/nublado 24 9 -
24 1:05.183 26 Super Macios Parcial/nublado 24 9 -
25 1:04.368 25 Super Macios Parcial/nublado 24 9 -
26 1:04.895 24 Super Macios Parcial/nublado 24 9 -
27 1:05.098 20 Super Macios Parcial/nublado 24 9 -
28 1:05.643 20 Super Macios Parcial/nublado 24 9 -
29 1:05.698 20 Super Macios Parcial/nublado 24 9 -
30 1:05.730 20 Super Macios Parcial/nublado 24 9 -
31 1:06.024 20 Super Macios Parcial/nublado 24 10 -
32 1:05.758 23 Super Macios Parcial/nublado 24 10 -
33 1:06.321 23 Super Macios Parcial/nublado 24 10 -
34 1:05.044 21 Super Macios Parcial/nublado 24 10 -
35 1:05.236 20 Super Macios Parcial/nublado 24 10 -
36 1:05.375 20 Super Macios Parcial/nublado 24 10 -
37 1:13.027 26 Super Macios Parcial/nublado 24 10 Pit
38 1:35.141 26 Super Macios Parcial/nublado 23 10 -
39 1:05.323 26 Super Macios Parcial/nublado 22 10 -
40 1:05.938 25 Super Macios Parcial/nublado 21 10 -
41 1:05.250 24 Super Macios Parcial/nublado 20 10 -
42 1:05.091 24 Super Macios Parcial/nublado 20 10 -
43 1:05.618 23 Super Macios Parcial/nublado 20 10 -
44 1:04.807 23 Super Macios Parcial/nublado 20 10 -
45 1:04.954 23 Super Macios Parcial/nublado 20 10 -
46 1:04.508 23 Super Macios Parcial/nublado 20 10 -
47 1:04.803 22 Super Macios Parcial/nublado 20 10 -
48 1:04.793 22 Super Macios Parcial/nublado 20 10 -
49 1:06.721 21 Super Macios Parcial/nublado 20 10 -
50 1:05.807 21 Super Macios Parcial/nublado 20 10 -
51 1:05.901 18 Super Macios Parcial/nublado 20 10 -
52 1:06.278 17 Super Macios Parcial/nublado 20 10 -
53 1:05.962 15 Super Macios Parcial/nublado 20 10 -
54 1:05.934 15 Super Macios Parcial/nublado 20 10 -
55 1:05.607 14 Super Macios Parcial/nublado 20 10 -
56 1:12.893 17 Super Macios Parcial/nublado 21 10 Pit
57 1:41.683 25 Super Macios Parcial/nublado 21 10 -
58 1:11.290 25 Super Macios Parcial/nublado 21 10 Erro do Piloto
59 1:05.619 25 Super Macios Parcial/nublado 21 10 -
60 1:04.956 25 Super Macios Parcial/nublado 21 10 -
61 1:05.471 24 Super Macios Parcial/nublado 21 11 -
62 1:05.235 24 Super Macios Parcial/nublado 21 11 -
63 1:05.116 24 Super Macios Parcial/nublado 21 11 -
64 1:05.529 24 Super Macios Parcial/nublado 21 11 -
65 1:05.093 24 Super Macios Parcial/nublado 21 11 -
66 1:05.290 24 Super Macios Parcial/nublado 21 11 -
67 1:05.244 24 Super Macios Parcial/nublado 21 11 -
68 1:04.491 24 Super Macios Parcial/nublado 21 11 -
69 1:04.364 24 Super Macios Parcial/nublado 21 11 -
70 1:04.771 22 Super Macios Parcial/nublado 20 11 -
71 1:05.293 22 Super Macios Parcial/nublado 20 11 -
72 1:05.042 22 Super Macios Parcial/nublado 19 11 -
73 1:05.782 22 Super Macios Parcial/nublado 19 11 -
74 1:05.324 20 Super Macios Parcial/nublado 19 11 -
75 1:12.756 22 Super Macios Parcial/nublado 19 11 Pit
76 1:35.636 25 Super Macios Parcial/nublado 19 11 -
77 1:06.739 24 Super Macios Parcial/nublado 19 11 -
78 1:05.639 24 Super Macios Parcial/nublado 18 11 -
79 1:05.017 24 Super Macios Parcial/nublado 17 11 -


Riscos usados:
Ultrapassagem Defesa Pista Livre e Seca Pista Livre e Chuva Avaria
21 5 45 45 0

Afinação usada:
Asa Dianteira Asa Traseira Motor Travões Caixa Suspensão
414 474 749 211 150 932

Cha Mot ADiant ATras Carroç Later Refrig Caixa Trav Susp Elec
Nível das peças: 6 6 6 5 6 6 7 6 6 5 5
Desgaste das Peças (no início) (%): 22 0 65 60 58 17 16 0 21 66 73
Desgaste das Peças (no final) (%): 42 32 85 83 75 32 33 26 54 90 90

Combustível inicíal (litros): 44

Pit Razão da paragem Estado pneus (%) Combust. restante (%) Reabast. até (litros) Tempo da paragem (seg)
Paragem 1 (Volta 18): Não havia mais combustível 23 1 47 litros 23.605
Paragem 2 (Volta 37): Não havia mais combustível 16 1 47 litros 20.870
Paragem 3 (Volta 56): Não havia mais combustível 19 1 47 litros 27.785
Paragem 4 (Volta 75): Não havia mais combustível 19 1 47 litros 21.112

Estado dos pneus após o final (%): 84

Combustível restante no final (litros): 37


faltou-me gasolina aqui num stint o que depois fez com que parasse mais cedo umas voltas.
Tenho usado margem devido ao piloto ser novo, nesta fui à confiança e lixei-me.

abraços
avatar
José Serrano

Mensagens : 984
Data de inscrição : 22/09/2014

Ver perfil do usuário

Voltar ao Topo Ir em baixo

Re: Race Analysis

Mensagem por alexxxIF em Qua Maio 20, 2015 11:49 pm

não foste tu que te lixaste, penso que fomos todos que fizemos uma paragem extra.
avatar
alexxxIF

Mensagens : 437
Data de inscrição : 24/09/2014

Ver perfil do usuário

Voltar ao Topo Ir em baixo

Re: Race Analysis

Mensagem por Paulo Coutinho em Qui Maio 21, 2015 1:36 am

Alex tens que ter calma, na última corrida pofias ter terminado bem melhor.
Andaste sempre atrás do mesmo cromo e depois perdeste 7 ou 8 lugares devido à paragem extra.

Acho é que não devias ter-te empenhado tanto, estás mal de guito e talvez o teu piloto tenha o moral de rastos.

No entanto tudo está em aberto até pq tens feito boas corridas. cheers

_________________
Paulo Coutinho
avatar
Paulo Coutinho

Mensagens : 1715
Data de inscrição : 31/03/2015
Idade : 44

Ver perfil do usuário

Voltar ao Topo Ir em baixo

Re: Race Analysis

Mensagem por hugo costa em Qui Maio 21, 2015 8:22 pm

Informação da corrida
Voltas
Qualificação 1 Qualificação 2
1:05.430s 1:06.245s

Afinações usadas
Sessão ADiant ATras Mot Trav Caixa Susp Pneus
Q1 528 568 850 279 264 999 Macios
Q2 509 549 865 255 280 999 Macios
Corrida 513 553 861 261 276 999 Macios

Riscos usados
Riscos na partida
Ultrapassar onde for possível
Ultrapassagem Defesa Pista Livre e Seca Pista Livre e Chuva Avaria
10 1 70 70 0

Posições
Início Final
15 14
Carácter do carro
Potência Manobrabilidade Aceleração
84 84 84

Combustível inicíal: 46 litros

Pit Razão Pit Condição pneus
Combustível restante Reabastecido até Tempos de pit
Paragem 1
(Volta 20) Não havia mais combustível 30% 1% 46 litros 27.041s
Paragem 2
(Volta 40) Não havia mais combustível 28% 1% 46 litros 23.632s
Paragem 3
(Volta 60) Não havia mais combustível 31% 1% 46 litros 22.749s

Condição dos pneus no final: 34%

Combustível restante no carro após final: 4 litros

hugo costa

Mensagens : 292
Data de inscrição : 22/09/2014

Ver perfil do usuário

Voltar ao Topo Ir em baixo

Re: Race Analysis

Mensagem por hugueta em Qui Maio 21, 2015 9:55 pm

Dados das voltas de treino
Volta Tempo volta Erro Piloto Tempo teórico Configurações
AsaD AsaT Motor Trav Caixa Susp Pneus Com.
1 1:04.598s 0.089s 1:04.509s 533 533 804 278 214 999 Médios
2 1:04.777s 0.263s 1:04.514s 513 553 804 278 214 999 Médios
3 1:04.526s 0.016s 1:04.510s 553 513 804 278 214 999 Médios
4 1:04.977s 0.469s 1:04.508s 513 513 804 278 214 999 Médios
5 1:05.065s 0.554s 1:04.511s 503 503 804 278 214 999 Médios
6 1:04.653s 0.135s 1:04.518s 553 553 804 278 214 999 Médios
Comentários do piloto na volta de treino 6:

Asas: O carro poderia ter um pouco mais de velocidade nas rectas


Informação de voltas e desgaste
Nível das peças
Cha Mot ADiant ATras Carroç Later Refrig Caixa Trav Susp Elec
5 5 5 5 6 6 6 5 6 5 6
Desgaste das Peças (no início)
46% 0% 71% 0% 37% 17% 27% 0% 51% 0% 14%
Desgaste das Peças (no final)
68% 35% 93% 25% 55% 32% 44% 29% 86% 25% 31%
Volta Tempo de volta Pos Pneus Tempo Temp Hum Eventos
0 - 13 Médios Parcial/nublado 18° 10% -
1 1:15.517 14 Médios Parcial/nublado 18° 10% -
2 1:05.496 14 Médios Parcial/nublado 18° 10% -
3 1:05.761 13 Médios Parcial/nublado 18° 10% -
4 1:05.926 13 Médios Parcial/nublado 18° 10% -
5 1:05.480 13 Médios Parcial/nublado 18° 10% -
6 1:06.165 13 Médios Parcial/nublado 18° 9% -
7 1:05.613 13 Médios Sol 19° 9% -
8 1:05.535 12 Médios Sol 20° 9% -
9 1:06.073 12 Médios Sol 21° 9% -
10 1:04.997 11 Médios Sol 21° 9% -
11 1:05.652 11 Médios Sol 22° 9% -
12 1:05.951 11 Médios Sol 22° 9% -
13 1:05.963 11 Médios Sol 23° 9% -
14 1:05.795 11 Médios Sol 23° 9% -
15 1:05.196 11 Médios Sol 23° 9% -
16 1:04.253 10 Médios Sol 23° 9% -
17 1:03.641 10 Médios Sol 24° 9% -
18 1:03.780 10 Médios Sol 24° 9% -
19 1:04.103 10 Médios Sol 24° 9% -
20 1:03.631 10 Médios Sol 24° 9% -
21 1:03.514 10 Médios Parcial/nublado 24° 9% -
22 1:04.952 9 Médios Parcial/nublado 24° 9% -
23 1:04.697 9 Médios Parcial/nublado 24° 9% -
24 1:04.259 8 Médios Parcial/nublado 24° 9% -
25 1:04.652 7 Médios Parcial/nublado 24° 9% -
26 1:12.016 7 Médios Parcial/nublado 24° 9% Pit
27 1:36.558 13 Médios Parcial/nublado 24° 9% -
28 1:05.168 11 Médios Parcial/nublado 24° 9% -
29 1:04.594 8 Médios Parcial/nublado 24° 9% -
30 1:04.716 7 Médios Parcial/nublado 24° 9% -
31 1:04.092 7 Médios Parcial/nublado 24° 10% -
32 1:03.942 6 Médios Parcial/nublado 24° 10% -
33 1:04.204 6 Médios Parcial/nublado 24° 10% -
34 1:03.993 6 Médios Parcial/nublado 24° 10% -
35 1:03.915 5 Médios Parcial/nublado 24° 10% -
36 1:04.013 4 Médios Parcial/nublado 24° 10% -
37 1:04.143 4 Médios Parcial/nublado 24° 10% -
38 1:04.256 4 Médios Parcial/nublado 23° 10% -
39 1:04.387 4 Médios Parcial/nublado 22° 10% -
40 1:04.162 4 Médios Parcial/nublado 21° 10% -
41 1:04.165 4 Médios Parcial/nublado 20° 10% -
42 1:04.174 3 Médios Parcial/nublado 20° 10% -
43 1:03.940 3 Médios Parcial/nublado 20° 10% -
44 1:04.132 3 Médios Parcial/nublado 20° 10% -
45 1:03.853 3 Médios Parcial/nublado 20° 10% -
46 1:04.391 3 Médios Parcial/nublado 20° 10% -
47 1:04.420 3 Médios Parcial/nublado 20° 10% -
48 1:04.385 3 Médios Parcial/nublado 20° 10% -
49 1:03.900 3 Médios Parcial/nublado 20° 10% -
50 1:03.849 3 Médios Parcial/nublado 20° 10% -
51 1:03.865 3 Médios Parcial/nublado 20° 10% -
52 1:12.062 3 Médios Parcial/nublado 20° 10% Pit
53 1:35.729 7 Médios Parcial/nublado 20° 10% -
54 1:12.102 7 Médios Parcial/nublado 20° 10% Erro do Piloto
55 1:04.765 6 Médios Parcial/nublado 20° 10% -
56 1:04.355 6 Médios Parcial/nublado 21° 10% -
57 1:04.468 5 Médios Parcial/nublado 21° 10% -
58 1:04.292 5 Médios Parcial/nublado 21° 10% -
59 1:04.319 5 Médios Parcial/nublado 21° 10% -
60 1:04.409 5 Médios Parcial/nublado 21° 10% -
61 1:04.605 5 Médios Parcial/nublado 21° 11% -
62 1:04.385 5 Médios Parcial/nublado 21° 11% -
63 1:04.153 5 Médios Parcial/nublado 21° 11% -
64 1:03.964 5 Médios Parcial/nublado 21° 11% -
65 1:04.261 5 Médios Parcial/nublado 21° 11% -
66 1:04.003 5 Médios Parcial/nublado 21° 11% -
67 1:04.815 5 Médios Parcial/nublado 21° 11% -
68 1:04.531 5 Médios Parcial/nublado 21° 11% -
69 1:04.726 5 Médios Parcial/nublado 21° 11% -
70 1:04.318 5 Médios Parcial/nublado 20° 11% -
71 1:04.805 4 Médios Parcial/nublado 20° 11% -
72 1:04.680 4 Médios Parcial/nublado 19° 11% -
73 1:04.179 4 Médios Parcial/nublado 19° 11% -
74 1:04.554 4 Médios Parcial/nublado 19° 11% -
75 1:04.434 4 Médios Parcial/nublado 19° 11% -
76 1:04.509 3 Médios Parcial/nublado 19° 11% -
77 1:03.671 3 Médios Parcial/nublado 19° 11% -
78 1:04.099 2 Médios Parcial/nublado 18° 11% -
79 1:04.110 2 Médios Parcial/nublado 17° 11% -

Descarregar a análise da corrida em Excel

Informação da corrida
Voltas
Qualificação 1 Qualificação 2
1:04.966s 1:05.707s

Afinações usadas
Sessão ADiant ATras Mot Trav Caixa Susp Pneus
Q1 513 513 804 278 214 999 Médios
Q2 495 495 818 254 230 999 Médios
Corrida 500 500 814 262 225 999 Médios

Riscos usados
Riscos na partida
Evitar problemas
Ultrapassagem Defesa Pista Livre e Seca Pista Livre e Chuva Avaria
21 5 75 55 0

Atributos do piloto
Nome Piloto VG Conc Tal Agre Exper C.Téc Res Car Motiv Rep Peso Id
Ivan Mondini 132 179 141 0 136 213 76 113 160 0 56 27

Posições
Início Final
13 2
Carácter do carro
Potência Manobrabilidade Aceleração
76 75 73

Fornecedor de pneus
Pipirelli Pipirelli
Temperatura óptima:
34°
Desempenho em seco:

Desempenho em molhado:

Durabilidade:

Distância de aquecimento:


Tempo da sessão
Treinos / Qualificação 1 Qualificação 2 / Início da corrida
Parcialmente nublado
Temp: 22°C
Humidade: 17% Parcialmente nublado
Temp: 18°C
Humidade: 10%
Previsão para a corrida
Início - 0h30m 0h30m - 1h
Temp: 19° - 24°
Humidade: 9% - 19%
Probabilidade chuva: 0% Temp: 17° - 21°
Humidade: 10% - 18%
Probabilidade chuva: 0%
1h - 1h30m 1h30m - 2h
Temp: 17° - 21°
Humidade: 11% - 20%
Probabilidade chuva: 0% Temp: 16° - 20°
Humidade: 10% - 18%
Probabilidade chuva: 0%


Combustível inicíal: 59 litros

Pit Razão Pit Condição pneus
Combustível restante Reabastecido até Tempos de pit
Paragem 1
(Volta 26) Não havia mais combustível 25% 1% 59 litros 23.003s
Paragem 2
(Volta 52) Não havia mais combustível 25% 1% 61 litros 22.404s

Condição dos pneus no final: 23%

Combustível restante no carro após final: 0 litr

No que me toca ao combustivel, acabei com 0% coloquei um litro a mais no ultimo stint o que safou.

hugueta

Mensagens : 494
Data de inscrição : 30/09/2014
Idade : 40
Localização : Lx

Ver perfil do usuário

Voltar ao Topo Ir em baixo

Re: Race Analysis

Mensagem por Conteúdo patrocinado


Conteúdo patrocinado


Voltar ao Topo Ir em baixo

Ver o tópico anterior Ver o tópico seguinte Voltar ao Topo

- Tópicos similares

 :: S47

 
Permissão deste fórum:
Você não pode responder aos tópicos neste fórum